Weather History for Glendive, MT

Change the Weather History Date:

Sunday, October 6, 2013

  Actual Average Record
Temperature  
Mean Temperature 50 °F -  
Max Temperature 71 °F 61 °F 82 °F (2003)
Min Temperature 30 °F 35 °F 10 °F (2005)
Degree Days  
Heating Degree Days 14    
Moisture  
Dew Point 32 °F    
Average Humidity 50    
Maximum Humidity 80    
Minimum Humidity 27    
Precipitation  
Precipitation 0.00 in - - ()
Sea Level Pressure  
Sea Level Pressure 30.03 in    
Wind  
Wind Speed 6 mph (WSW)    
Max Wind Speed 18 mph    
Max Gust Speed 24 mph    
Visibility 10 miles    
Events      
Averages and records for this station are not official NWS values.
T = Trace of Precipitation, MM = Missing Value Source: NWS Daily Summary

Daily Weather History Graph

Daily Weather History Graph

Search for Another Location

Airport:

Trip Planner

Search our weather history database for the weather conditions in past years. The results will help you decide how hot, cold, wet, or windy it might be!

Date:

Astronomy

Oct. 06, 2013 Rise Set
Actual Time 7:05 AM MDT 6:28 PM MDT
Civil Twilight 6:34 AM MDT 6:58 PM MDT
Nautical Twilight 5:59 AM MDT 7:34 PM MDT
Astronomical Twilight 5:23 AM MDT 8:09 PM MDT
Moon 9:01 AM MDT (10/6) 7:19 PM MDT (10/6)
Length of Visible Light 12h 23m
Length of Day
11h 23m
Waxing Crescent, 4% of the Moon is Illuminated
Oct 6
Waxing Crescent
Oct 11
First Quarter
Oct 18
Full
Oct 26
Last Quarter
Nov 3
New

Hourly Weather History & Observations

Time (MDT) Temp. Windchill Dew Point Humidity Pressure Visibility Wind Dir Wind Speed Gust Speed Precip Events Conditions
12:15 AM 39.2 °F - 24.8 °F 56% 30.05 in 10.0 mi Calm Calm - N/A   Clear
12:35 AM 39.2 °F 35.9 °F 26.6 °F 61% 30.05 in 10.0 mi NNW 4.6 mph - N/A   Clear
12:55 AM 37.4 °F - 24.8 °F 60% 30.06 in 10.0 mi Calm Calm - N/A   Clear
1:15 AM 37.4 °F - 24.8 °F 60% 30.06 in 10.0 mi Calm Calm - N/A   Clear
1:35 AM 37.4 °F - 23.0 °F 56% 30.06 in 10.0 mi Calm Calm - N/A   Clear
1:55 AM 35.6 °F 30.7 °F 26.6 °F 70% 30.06 in 10.0 mi WSW 5.8 mph - N/A   Clear
2:35 AM 37.4 °F 34.9 °F 26.6 °F 65% 30.07 in 10.0 mi WNW 3.5 mph - N/A   Clear
2:55 AM 35.6 °F - 24.8 °F 65% 30.07 in 10.0 mi Calm Calm - N/A   Clear
3:15 AM 35.6 °F 31.7 °F 24.8 °F 65% 30.06 in 10.0 mi SSE 4.6 mph - N/A   Clear
3:35 AM 33.8 °F 29.6 °F 24.8 °F 70% 30.06 in 10.0 mi South 4.6 mph - N/A   Clear
3:55 AM 33.8 °F 30.8 °F 26.6 °F 75% 30.06 in 10.0 mi South 3.5 mph - N/A   Clear
4:15 AM 33.8 °F 28.6 °F 24.8 °F 70% 30.06 in 10.0 mi SW 5.8 mph - N/A   Clear
4:35 AM 32.0 °F 26.4 °F 24.8 °F 75% 30.06 in 10.0 mi SW 5.8 mph - N/A   Clear
4:55 AM 30.2 °F 25.4 °F 24.8 °F 80% 30.06 in 10.0 mi SW 4.6 mph - N/A   Clear
5:15 AM 33.8 °F 29.6 °F 26.6 °F 75% 30.07 in 10.0 mi SSW 4.6 mph - N/A   Clear
5:35 AM 33.8 °F 30.8 °F 24.8 °F 70% 30.07 in 10.0 mi South 3.5 mph - N/A   Clear
5:55 AM 33.8 °F 29.6 °F 24.8 °F 70% 30.07 in 10.0 mi South 4.6 mph - N/A   Clear
6:15 AM 35.6 °F 31.7 °F 26.6 °F 70% 30.07 in 10.0 mi SSW 4.6 mph - N/A   Clear
6:35 AM 33.8 °F 27.7 °F 26.6 °F 75% 30.08 in 10.0 mi SW 6.9 mph - N/A   Clear
6:55 AM 35.6 °F 30.7 °F 26.6 °F 70% 30.08 in 10.0 mi WSW 5.8 mph - N/A   Clear
7:15 AM 35.6 °F 30.7 °F 26.6 °F 70% 30.08 in 10.0 mi SW 5.8 mph - N/A   Clear
7:36 AM 35.6 °F 32.8 °F 28.4 °F 75% 30.08 in 10.0 mi SSW 3.5 mph - N/A   Clear
7:55 AM 39.2 °F 35.0 °F 28.4 °F 65% 30.07 in 10.0 mi SW 5.8 mph - N/A   Clear
8:15 AM 42.8 °F 40.1 °F 30.2 °F 61% 30.07 in 10.0 mi SSW 4.6 mph - N/A   Clear
8:35 AM 46.4 °F - 32.0 °F 57% 30.08 in 10.0 mi Calm Calm - N/A   Clear
8:55 AM 48.2 °F - 33.8 °F 58% 30.08 in 10.0 mi South 4.6 mph - N/A   Clear
9:35 AM 51.8 °F - 35.6 °F 54% 30.08 in 10.0 mi SE 6.9 mph - N/A   Clear
10:15 AM 57.2 °F - 37.4 °F 48% 30.07 in 10.0 mi SW 5.8 mph - N/A   Clear
10:35 AM 60.8 °F - 35.6 °F 39% 30.07 in 10.0 mi WSW 8.1 mph - N/A   Clear
10:55 AM 62.6 °F - 35.6 °F 37% 30.08 in 10.0 mi WSW 11.5 mph - N/A   Clear
11:15 AM 64.4 °F - 35.6 °F 34% 30.08 in 10.0 mi West 10.4 mph - N/A   Clear
11:35 AM 64.4 °F - 35.6 °F 34% 30.07 in 10.0 mi West 15.0 mph 20.7 mph N/A   Clear
11:55 AM 66.2 °F - 37.4 °F 35% 30.06 in 10.0 mi West 17.3 mph 23.0 mph N/A   Clear
12:15 PM 66.2 °F - 35.6 °F 32% 30.06 in 10.0 mi WNW 18.4 mph 23.0 mph N/A   Clear
12:35 PM 66.2 °F - 35.6 °F 32% 30.06 in 10.0 mi West 15.0 mph 20.7 mph N/A   Clear
12:55 PM 68.0 °F - 35.6 °F 30% 30.04 in 10.0 mi WNW 18.4 mph 24.2 mph N/A   Clear
1:15 PM 69.8 °F - 35.6 °F 28% 30.04 in 10.0 mi West 15.0 mph 20.7 mph N/A   Clear
1:35 PM 69.8 °F - 35.6 °F 28% 30.03 in 10.0 mi WNW 15.0 mph - N/A   Clear
1:55 PM 69.8 °F - 35.6 °F 28% 30.02 in 10.0 mi West 13.8 mph 23.0 mph N/A   Clear
2:15 PM 71.6 °F - 35.6 °F 27% 30.01 in 10.0 mi WNW 12.7 mph 18.4 mph N/A   Clear
2:35 PM 71.6 °F - 35.6 °F 27% 30.01 in 10.0 mi WNW 11.5 mph 18.4 mph N/A   Clear
2:55 PM 71.6 °F - 35.6 °F 27% 30.00 in 10.0 mi WNW 13.8 mph 19.6 mph N/A   Clear
3:15 PM 71.6 °F - 35.6 °F 27% 30.00 in 10.0 mi West 12.7 mph 18.4 mph N/A   Clear
3:35 PM 71.6 °F - 35.6 °F 27% 30.00 in 10.0 mi WNW 13.8 mph 19.6 mph N/A   Clear
3:55 PM 71.6 °F - 35.6 °F 27% 29.99 in 10.0 mi WNW 13.8 mph - N/A   Clear
4:15 PM 71.6 °F - 35.6 °F 27% 29.99 in 10.0 mi WNW 13.8 mph 20.7 mph N/A   Clear
4:35 PM 71.6 °F - 35.6 °F 27% 29.99 in 10.0 mi WNW 12.7 mph - N/A   Clear
4:55 PM 71.6 °F - 35.6 °F 27% 29.99 in 10.0 mi WNW 13.8 mph 23.0 mph N/A   Clear
5:15 PM 69.8 °F - 35.6 °F 28% 29.99 in 10.0 mi WNW 15.0 mph 19.6 mph N/A   Clear
5:35 PM 69.8 °F - 35.6 °F 28% 29.99 in 10.0 mi WNW 13.8 mph 18.4 mph N/A   Clear
5:55 PM 66.2 °F - 35.6 °F 32% 29.99 in 10.0 mi WNW 10.4 mph - N/A   Clear
6:15 PM 64.4 °F - 35.6 °F 34% 29.99 in 10.0 mi West 10.4 mph - N/A   Clear
6:55 PM 57.2 °F - 33.8 °F 41% 29.99 in 10.0 mi West 9.2 mph - N/A   Clear
7:15 PM 53.6 °F - 33.8 °F 47% 29.99 in 10.0 mi WNW 4.6 mph - N/A   Clear
7:35 PM 57.2 °F - 35.6 °F 44% 29.99 in 10.0 mi WNW 8.1 mph - N/A   Clear
7:55 PM 55.4 °F - 33.8 °F 44% 29.99 in 10.0 mi West 5.8 mph - N/A   Clear
8:15 PM 51.8 °F - 33.8 °F 50% 29.99 in 10.0 mi West 8.1 mph - N/A   Clear
8:35 PM 48.2 °F - 32.0 °F 54% 29.99 in 10.0 mi West 6.9 mph - N/A   Clear
8:55 PM 50.0 °F - 33.8 °F 54% 29.99 in 10.0 mi WSW 12.7 mph - N/A   Clear
9:15 PM 48.2 °F - 33.8 °F 58% 29.99 in 10.0 mi WNW 8.1 mph - N/A   Clear
9:35 PM 48.2 °F - 33.8 °F 58% 29.99 in 10.0 mi WNW 10.4 mph - N/A   Clear
9:55 PM 48.2 °F - 33.8 °F 58% 29.99 in 10.0 mi West 10.4 mph - N/A   Clear
10:15 PM 48.2 °F - 33.8 °F 58% 29.98 in 10.0 mi WNW 8.1 mph - N/A   Clear
10:35 PM 48.2 °F - 33.8 °F 58% 29.98 in 10.0 mi WNW 9.2 mph - N/A   Clear
10:55 PM 46.4 °F 42.9 °F 33.8 °F 62% 29.97 in 10.0 mi WNW 6.9 mph - N/A   Clear
11:15 PM 48.2 °F - 33.8 °F 58% 29.97 in 10.0 mi Calm Calm - N/A   Clear
11:35 PM 50.0 °F - 35.6 °F 58% 29.96 in 10.0 mi SSE 5.8 mph - N/A   Clear
11:55 PM 46.4 °F 43.5 °F 32.0 °F 57% 29.96 in 10.0 mi WSW 5.8 mph - N/A   Clear